Timeline UpdatesTrip UpdatesNews PostsPvt PostsTravel TipsAdmin PostsConv PostsFollowed PostsChat RequestsBlog PostsPNR Posts

Disclaimer
Search
 
 
Mon Apr 21, 2014 20:40:04 ISTHomeTrainsΣChainsAtlasPNRForumGalleryNewsFAQTripsMembersLoginFeedback
No Recent News for this Train
Other Trains in the News **new
Latest...
.
Sun May 12, 2013 (11:51AM)
⇐ Return Journey: n/a

77620/Kacheguda Jalna Empty Rake

Aug 12 2013 (3:07PM)
Change Departure Station:
Change Arrival Station:
Post a Train Travel TipPost a Train Travel Tip **new
Post a Comment/Question/Picture/VideoPost a Comment/Question/Picture/Video
Pantry/Catering
???
RSA - Rake Sharing
Rake/Coach Composition
8 coach DEMU.
Loco
News    PNR    Forum    Time-Table    Availability    Fare Chart    Map    Arr/Dep History    Trips    Gallery    ΣChains    X/O    Timeline    
Travel Time: 13h 18m    1 halts    Distance: 433 km    Avg Speed: 32 km/hr
Type: DEMU
Zone: SCR/South Central
Departs @ 00:27
Platform# ???
SMTWTFS
Bolarum Bazar/BOZ 
Arrives @ 13:45
Platform# ???
SMTWTFS
Jalna/J 

1 halts. 60 intermediate Stations between Bolarum Bazar and Jalna

Hide intermediate Stations  Show Old Time-Table

#CodeStation NameX/OArrivesAvgDepartsAvgHaltPFDay#KmSpeedElevZoneAddress
1KCGHyderabad Kacheguda (5)  -23:55---1-17.433494mSCRHyderabad - 500027, Andhra Pradesh
1.1VARVidya Nagar (2)  23:59-23:59-  1-15.4 33505mSCRHyderabad, Andhra Pradesh
1.2JOOJamai Osmania (2)  00:01-00:01-  2-14.0 33515mSCRHyderabad, Andhra Pradesh
1.3ATCArts College (2)  00:02-00:02-  2-13.4 33521mSCRHyderabad, Andhra Pradesh
1.4STPDSitafalmandi (4)  00:04-00:04-  2-12.3 33533mSCRSecunderabad, Andhra Pradesh
1.5STDBSitafalmandi B Cabin  00:05-00:05-  2-12.2 33532mSCRSecunderabad, Andhra Pradesh
1.6LGDHLalaguda Gate (2)  00:09-00:09-  2-9.6 33543mSCRSecunderabad, Andhra Pradesh
1.7MJFMalkajgiri (3)  00:11-00:11-  2-8.5 33535mSCRSecunderabad, Andhra Pradesh
1.8DYEDayanand Nagar (2)  00:13-00:13-  2-7.6 33537mSCRSecunderabad, Andhra Pradesh
1.9SFXSafilguda (2)X  00:14-00:14-  2-7.0 33544mSCRSecunderabad, Andhra Pradesh
1.10RKORamakistapuram Gate (2)  00:17-00:17-  2-5.3 33561mSCRSecunderabad, Andhra Pradesh
1.11AMQAmmuguda Halt (2)  00:19-00:19-  2-4.2 33569mSCRSecunderabad, Andhra Pradesh
1.12CVBCavalry Barracks (3)  00:22-00:22-  2-2.8 33575mSCRSecunderabad, Andhra Pradesh
1.13ALWAlwal (2)  00:24-00:24-  2-1.6 33580mSCRSecunderabad, Andhra Pradesh
1.14BOZBolarum Bazar (2)  00:27-00:27-  20.0 33584mSCRSecunderabad, Andhra Pradesh
1.15BMOBolarum (3)O  00:30-00:30-  21.7 33597mSCRSecunderabad, Andhra Pradesh
1.16GOPLGundlapochampalli  00:40-00:40-  26.9 33601mSCRTelangana Region, Andhra Pradesh
1.17GDPLGundla Pochampally (1)  00:40-00:40-  27.0 33601mSCRRangareddy, Andhra Pradesh
1.18GWVGowdavalli (1)  00:49-00:49-  212.1 33601mSCRRangareddy, Andhra Pradesh
1.19MEDMedchal (3)  00:56-00:56-  215.5 33602mSCRRangareddy Dist., Andhra Pradesh
1.20DBVDabilpur (1)  01:03-01:03-  219.5 33611mSCRRangareddy Dist., Andhra Pradesh
1.21KUCHKuchavaram Halt (1)  01:15-01:15-  226.1 33595mSCRRangareddy, Andhra Pradesh
1.22MOBManoharabad (2)  01:20-01:20-  228.8 33593mSCRMedak, Andhra Pradesh
1.23PAPMPalata Potaram (1)  01:43-01:43-  241.3 33522mSCRNational Highway 7, Andhra Pradesh
1.24BMPLBrahmanapalli (1)  01:46-01:46-  243.1 33528mSCRNational Highway 7, Andhra Pradesh
1.25MEMasaipet (2)  01:52-01:52-  245.9 33520mSCRMedak, Andhra Pradesh
1.26SHANSrinivasa Nagar  01:57-01:57-  249.0 33522mSCRRamanthapur, Andhra Pradesh
1.27WDRWadiaram (2)  02:06-02:06-  253.7 33547mSCRTelangana Region, Andhra Pradesh
1.28MZLMirzapalli (1)  02:18-02:18-  260.3 33530mSCRMedak, Andhra Pradesh
1.29SNPHShankapur Halt  02:29-02:29-  266.0 33547mSCRNizamabad, Andhra Pradesh
1.30AKEAkanapet  02:38-02:38-  271.1 33566mSCR, Andhra Pradesh
1.31BKUBhiknur  02:49-02:49-  277.2 33575mSCRNizamabad, Andhra Pradesh
1.32THPRTippapur (1)  02:57-02:57-  281.3 33549mSCRNational Highway 7, Andhra Pradesh
1.33TMDTalmadlaX  03:07-03:07-  286.8 33559mSCRTelangana Region, Andhra Pradesh
1.34KMCKamareddi (3)  03:26-03:26-  296.8 33528mSCRKamareddi, Andhra Pradesh
1.35UPWUppalavaiX  03:46-03:46-  2108.1 33529mSCRUppalwai Main Rd, Andhra Pradesh
1.36SCPSirnapalli  04:06-04:06-  2118.5 33456mSCRSirnapalli, Andhra Pradesh
1.37IDLIndalvai (1)  04:20-04:20-  2126.4 33439mSCRIndalvai, Andhra Pradesh
1.38DHPDichpalli  04:38-04:38-  2135.8 33424mSCRDichpalli, Andhra Pradesh
1.39NZBNizamabad (3)  05:01-05:01-  2148.7 33384mSCRNizamabad, Andhra Pradesh
1.40JKMJankampet Junction (1)X  05:13-05:13-  2154.9 33391mSCRJankampet Junction nizamabad dist., Andhra Pradesh
1.41NVTNavipet (2)  05:30-05:30-  2164.3 33374mSCRNizamabad, Andhra Pradesh
1.42FKBFakrabad (1)X  05:43-05:43-  2171.3 33348mSCRBasara, Andhra Pradesh
1.43BSXBasar (2)  05:55-05:55-  2178.0 33358mSCRDist Adilabad, Andhra Pradesh
1.44DABDharmabad (2)O  06:14-06:14-  2187.9 33354mSCRDegaon, Maharashtra
1.45SQESamrla  06:26-06:26-  2194.4 33360mSCRDharmabad, Maharashtra
1.46KEKKarkheliX  06:39-06:39-  2201.5 33358mSCRBiloli, Maharashtra
1.47BLSABolsaX  06:52-06:52-  2208.9 33361mSCRDharmabad, Maharashtra
1.48UMRIUmri  07:08-07:08-  2217.3 33381mSCRNanded, Maharashtra
1.49SLGHShelgaon Halt  07:22-07:22-  2225.2 33378mSCRMudkhed, Maharashtra
1.50SVNSivungaon  07:31-07:31-  2229.6 33395mSCRNanded, Maharashtra
1.51MUEMudkhed Junction (4)X  07:44-07:44-  2236.8 33378mSCRMudkhed, Maharashtra
1.52MGCMugatX  08:01-08:01-  2246.0 33360mSCRNanded, Maharashtra
1.53PARDPathrad  08:07-08:07-  2249.3 33363mSCRHuzur Sahib Nanded, Maharashtra
1.54MTDIMaltekdi  08:20-08:20-  2256.4 33362mSCRNanded, Maharashtra
1.55NEDHazur Sahib Nanded (4)XO  08:25-08:25-  2259.2 33366mSCRNanded ph.no 09730471954, Maharashtra
1.56WNGWanegaon  08:37-08:37-  2265.6 33371mSCRChudawa, Maharashtra
1.57LBGLimbgaon  08:46-08:46-  2270.3 33390mSCRHuzur Sahib Nanded, Maharashtra
1.58CRUChudawa (1)XOO  09:03-09:03-  2279.9 33392mSCRHingoli, Maharashtra
1.59PAUPurna Junction (4)  09:22-09:22-  2289.8 33384mSCRPurna, Maharashtra
1.60MQLMirkhalX  09:44-09:44-  2301.9 33405mSCRPurna, Maharashtra
1.61PIZPingliX  09:54-09:54-  2307.2 33399mSCRParbhani, Maharashtra
1.62PBNParbhani Junction (3)X  10:14-10:14-  2318.2 33414mSCRParbhani 431401, Maharashtra
1.63PGPergaon  10:36-10:36-  2330.3 33441mSCRParbhani, Maharashtra
1.64DAVDevalgaon AvcharO  10:48-10:48-  2336.4 33425mSCRParbhani, Maharashtra
1.65MVOManwath Road (2)X  11:05-11:05-  2345.6 33421mSCRParbhani, Maharashtra
1.66DGPPDhengli Pimpalgaon  11:15-11:15-  2351.1 33407mSCRSatuna, Maharashtra
1.67SELUSelu (2)  11:32-11:32-  2360.6 33436mSCRParbhani, Maharashtra
1.68SCOSatuna  11:51-11:51-  2370.8 33440mSCRSatona, Maharashtra
1.69UPRUsmanpur  12:06-12:06-  2378.7 33444mSCRUsmanpur, Maharashtra
1.70PTUPartur (2)  12:23-12:23-  2388.2 33465mSCRJalna, Maharashtra
1.71PDGParadgaon  12:36-12:36-  2395.4 33454mSCRUsmanpur, Maharashtra
1.72RNERanjaniXO  12:48-12:48-  2401.7 33469mSCRJalna, Maharashtra
1.73KODIKodi  13:09-13:09-  2412.9 33473mSCRRanjani, Maharashtra
1.74SVDSarwari  13:27-13:27-  2422.9 33493mSCRRanjani, Maharashtra
2J•Jalna (3)•  13:45----2432.6-502mSCRJalna, Maharashtra
Scroll to Top
Scroll to Bottom